Terug naar catalogus

TITAN 4 CENTAUR R/B

ActiefGEO
NORAD 27169·ROCKET BODY·🇺🇸 United States

Gelanceerd Jan 14, 2002 vanaf Cape Canaveral Space Force Station

Loading…

TLE

VersSource: Space-Track

Epoch: Sep 14, 2026, 15:11 UTC

1 27169U 02001B   26257.63272780 -.00000066  00000-0  00000-0 0  9998
2 27169  10.3063  29.3271 0051219 139.5148 220.9108  1.00229827 27274

Volg TITAN 4 CENTAUR R/B in realtime met AllMySat

Download on the App Store